RH
22 22 22 22 22 22 20 20 20 19 18 17 15 14 14 13 14 14 13 13 12 11 14 30 54 85 92 89 83 68 48 46
26 25 24 24 25 25 24 23 23 21 19 18 17 17 17 16 16 17 17 16 15 15 13 14 28 56 84 93 86 87 65 49
29 28 29 29 30 29 27 27 25 24 23 24 25 24 23 23 22 22 24 22 20 19 17 14 15 27 54 74 90 96 88 58
31 31 32 34 33 30 29 28 27 25 26 27 27 26 27 29 30 31 31 29 26 24 22 19 15 15 28 55 76 99 98 81
36 39 40 38 35 32 30 30 29 29 32 32 33 33 34 35 36 34 33 33 29 27 27 23 18 13 15 33 59 79 88 88
45 46 44 40 35 33 31 31 33 35 36 38 39 39 40 39 39 41 39 36 34 31 29 31 24 16 12 21 40 66 76 83
52 48 42 38 39 37 35 36 39 41 43 47 47 45 44 44 48 50 47 45 42 38 35 33 30 24 16 14 28 44 68 74
51 46 45 44 42 41 41 43 45 48 51 55 52 48 49 52 55 58 60 60 58 53 47 47 38 31 26 19 17 30 48 75
53 51 45 45 46 47 48 50 51 55 58 59 55 54 56 60 63 64 65 65 67 64 63 61 49 47 42 32 29 30 45 54
56 48 44 44 49 53 55 56 60 62 63 64 62 60 60 63 64 64 62 58 66 80 83 78 63 56 53 45 42 31 30 50
55 47 44 44 47 51 54 58 65 68 70 69 65 64 62 67 66 62 62 59 61 59 77 80 76 69 59 54 44 34 34 36
53 49 47 45 43 40 48 53 56 70 74 74 71 71 70 71 72 74 72 66 56 60 74 73 80 81 77 70 61 51 47 55
56 53 51 43 44 39 45 49 49 51 62 62 75 81 80 78 77 78 82 88 92 80 75 81 78 76 70 72 69 63 66 66
60 59 51 44 35 33 34 37 33 36 38 53 51 63 81 84 84 89 88 96 97 97 96 88 87 83 87 86 83 79 78 77
67 58 49 41 34 31 32 34 35 32 32 31 44 48 49 60 64 66 89 95 98 97 98 97 98 96 96 95 82 99 99 88
65 56 52 39 34 26 27 34 37 34 31 33 31 42 44 41 49 49 47 50 54 61 61 76 79 82 84 86 86 94 92 92
67 62 47 40 34 23 26 26 28 35 26 25 28 28 36 38 31 39 40 34 32 37 43 40 44 49 49 51 46 41 41 40
73 58 44 40 33 23 21 23 26 25 22 17 18 21 21 26 33 27 24 31 30 28 25 29 26 27 33 31 32 32 34 34
67 54 46 40 32 24 22 20 21 24 19 15 12 13 19 17 14 20 21 20 21 20 22 20 19 19 15 15 14 15 16 16